Date String (YYYY-MM-DD hh:mm:ss) UTC,Instrument flags,Ambient pressure (hPa),Sample flow (lpm),Bypass flow (lpm),Sample temperature (°C),Ambient temperature (°C),ASC tube jacket temperature (°C),LED temperature (°C),Box temperature (°C),Sample RH (%),Span deviation,Mass concentration (μg/m³),Mass concentration (μg/m³),Mass concentration (μg/m³)
DateTimeUTC,F1_M11,P_M11,Q1_M11,Q2_M11,T1_M11,T2_M11,T3_M11,T4_M11,T5_M11,U1_M11,ZSPAN_M11,X0_M11,X2_M11,X1_M11
2021-12-30 02:00:00,,0815.4,5.00,0.00,22.5,23.0,00.0,31.4,24.5,06.6,0000.0,0019.74,0004.69,0002.73
2021-12-30 02:01:00,,0815.3,5.00,0.00,22.6,23.0,00.0,31.4,24.5,06.5,0000.0,0019.46,0004.69,0002.71
2021-12-30 02:02:00,,0815.3,5.00,0.00,22.6,22.8,00.0,31.4,24.5,06.5,0000.0,0019.01,0004.66,0002.69
2021-12-30 02:03:00,,0815.4,5.00,0.00,22.6,22.6,00.0,31.4,24.4,06.5,0000.0,0018.61,0004.68,0002.69
2021-12-30 02:04:00,,0815.3,4.99,0.00,22.6,22.4,00.0,31.5,24.4,06.6,0000.0,0018.42,0004.70,0002.70
2021-12-30 02:05:00,,0815.3,4.99,0.00,22.6,22.3,00.0,31.5,24.3,06.6,0000.0,0019.04,0004.71,0002.70
2021-12-30 02:06:00,,0815.3,5.01,0.00,22.6,22.2,00.0,31.5,24.3,06.6,0000.0,0018.62,0004.62,0002.69
2021-12-30 02:07:00,,0815.2,5.00,0.00,22.6,22.1,00.0,31.5,24.2,06.6,0000.0,0017.77,0004.53,0002.68
2021-12-30 02:08:00,,0815.3,5.00,0.00,22.6,22.0,00.0,31.5,24.2,06.6,0000.0,0017.89,0004.52,0002.69
2021-12-30 02:09:00,,0815.4,5.00,0.00,22.5,21.9,00.0,31.5,24.2,06.6,0000.0,0018.07,0004.49,0002.72
2021-12-30 02:10:00,,0815.3,4.98,0.00,22.5,21.9,00.0,31.5,24.2,06.6,0000.0,0018.08,0004.46,0002.73
2021-12-30 02:11:00,,0815.3,5.00,0.00,22.5,21.9,00.0,31.5,24.2,06.6,0000.0,0019.17,0004.53,0002.74
2021-12-30 02:12:00,,0815.2,4.99,0.00,22.5,21.8,00.0,31.5,24.1,06.6,0000.0,0019.03,0004.55,0002.75
2021-12-30 02:13:00,,0815.1,5.01,0.00,22.5,21.8,00.0,31.5,24.1,06.6,0000.0,0018.87,0004.52,0002.72
2021-12-30 02:14:00,,0815.1,4.99,0.00,22.4,21.7,00.0,31.5,24.1,06.6,0000.0,0018.34,0004.46,0002.69
2021-12-30 02:15:00,,0815.1,5.00,0.00,22.4,21.7,00.0,31.4,24.0,06.6,0000.0,0018.34,0004.48,0002.68
2021-12-30 02:16:00,,0815.0,5.00,0.00,22.4,21.7,00.0,31.4,24.0,06.6,0000.0,0018.57,0004.46,0002.64
2021-12-30 02:17:00,,0815.0,4.99,0.00,22.4,21.6,00.0,31.4,24.0,06.6,0000.0,0018.39,0004.49,0002.65
2021-12-30 02:18:00,,0815.1,5.01,0.00,22.4,21.6,00.0,31.4,24.0,06.7,0000.0,0018.56,0004.47,0002.63
2021-12-30 02:19:00,,0815.0,5.00,0.00,22.3,21.6,00.0,31.4,23.9,06.6,0000.0,0019.05,0004.49,0002.64
2021-12-30 02:20:00,,0815.1,5.01,0.00,22.3,21.5,00.0,31.4,23.9,06.6,0000.0,0019.43,0004.49,0002.60
2021-12-30 02:21:00,,0815.1,5.00,0.00,22.3,21.5,00.0,31.4,23.9,06.7,0000.0,0019.39,0004.53,0002.58
2021-12-30 02:22:00,,0815.0,5.00,0.00,22.3,21.6,00.0,31.4,23.9,06.7,0000.0,0018.91,0004.52,0002.57
2021-12-30 02:23:00,,0815.0,4.99,0.00,22.3,22.1,00.0,31.4,24.1,06.6,0000.0,0018.62,0004.47,0002.56
2021-12-30 02:24:00,,0815.0,5.01,0.00,22.5,22.8,00.0,31.4,24.3,06.6,0000.0,0018.84,0004.50,0002.57
2021-12-30 02:25:00,,0815.1,4.99,0.00,22.6,23.1,00.0,31.5,24.5,06.5,0000.0,0019.38,0004.51,0002.56
2021-12-30 02:26:00,,0815.0,5.00,0.00,22.6,22.9,00.0,31.5,24.5,06.5,0000.0,0018.32,0004.47,0002.54
2021-12-30 02:27:00,,0814.9,4.99,0.00,22.6,22.7,00.0,31.5,24.5,06.5,0000.0,0019.18,0004.46,0002.55
2021-12-30 02:28:00,,0814.9,5.00,0.00,22.6,22.6,00.0,31.5,24.4,06.5,0000.0,0019.37,0004.45,0002.54
2021-12-30 02:29:00,,0815.1,5.00,0.00,22.6,22.4,00.0,31.5,24.4,06.5,0000.0,0018.71,0004.53,0002.58
2021-12-30 02:30:00,,0815.1,5.01,0.00,22.6,22.3,00.0,31.5,24.3,06.5,0000.0,0018.67,0004.52,0002.58
2021-12-30 02:31:00,,0815.2,5.01,0.00,22.6,22.2,00.0,31.5,24.3,06.6,0000.0,0018.14,0004.54,0002.61
2021-12-30 02:32:00,,0815.2,5.00,0.00,22.6,22.1,00.0,31.5,24.2,06.6,0000.0,0018.82,0004.54,0002.63
2021-12-30 02:33:00,,0815.1,5.00,0.00,22.6,22.0,00.0,31.5,24.2,06.6,0000.0,0020.23,0004.58,0002.66
2021-12-30 02:34:00,,0815.2,5.00,0.00,22.5,21.9,00.0,31.5,24.1,06.6,0000.0,0020.80,0004.60,0002.68
2021-12-30 02:35:00,,0815.5,4.99,0.00,22.5,21.9,00.0,31.5,24.1,06.6,0000.0,0020.71,0004.62,0002.72
2021-12-30 02:36:00,,0815.3,5.00,0.00,22.5,21.8,00.0,31.5,24.1,06.7,0000.0,0020.92,0004.65,0002.77
2021-12-30 02:37:00,,0815.0,5.02,0.00,22.5,21.8,00.0,31.5,24.1,06.7,0000.0,0021.57,0004.69,0002.80
2021-12-30 02:38:00,,0815.0,4.99,0.00,22.4,21.7,00.0,31.5,24.1,06.7,0000.0,0020.70,0004.70,0002.81
2021-12-30 02:39:00,,0814.9,5.00,0.00,22.4,21.7,00.0,31.5,24.1,06.7,0000.0,0021.35,0004.75,0002.83
2021-12-30 02:40:00,,0815.1,5.01,0.00,22.4,21.6,00.0,31.5,24.1,06.7,0000.0,0021.23,0004.71,0002.84
2021-12-30 02:41:00,,0815.2,5.00,0.00,22.4,21.6,00.0,31.4,24.0,06.7,0000.0,0020.78,0004.69,0002.83
2021-12-30 02:42:00,,0815.1,5.01,0.00,22.4,21.6,00.0,31.4,24.0,06.7,0000.0,0020.85,0004.66,0002.84
2021-12-30 02:43:00,,0815.3,5.02,0.00,22.4,21.6,00.0,31.4,24.0,06.7,0000.0,0021.64,0004.60,0002.86
2021-12-30 02:44:00,,0814.9,4.99,0.00,22.3,21.6,00.0,31.4,24.0,06.7,0000.0,0019.42,0004.54,0002.86
2021-12-30 02:45:00,,0814.9,5.00,0.00,22.3,21.5,00.0,31.4,23.9,06.7,0000.0,0018.60,0004.56,0002.86
2021-12-30 02:46:00,,0815.2,5.00,0.00,22.3,21.7,00.0,31.4,24.0,06.7,0000.0,0017.82,0004.57,0002.87
2021-12-30 02:47:00,,0814.9,5.01,0.00,22.4,22.4,00.0,31.4,24.2,06.7,0000.0,0017.70,0004.61,0002.87
2021-12-30 02:48:00,,0814.9,5.00,0.00,22.6,23.0,00.0,31.5,24.5,06.6,0000.0,0016.89,0004.61,0002.87
2021-12-30 02:49:00,,0814.9,5.01,0.00,22.6,23.0,00.0,31.5,24.5,06.6,0000.0,0016.32,0004.63,0002.88
2021-12-30 02:50:00,,0814.9,4.99,0.00,22.7,22.8,00.0,31.5,24.5,06.6,0000.0,0015.40,0004.68,0002.89
2021-12-30 02:51:00,,0814.9,5.01,0.00,22.6,22.6,00.0,31.5,24.4,06.6,0000.0,0016.14,0004.70,0002.89
2021-12-30 02:52:00,,0814.9,5.00,0.00,22.6,22.4,00.0,31.5,24.3,06.6,0000.0,0016.27,0004.65,0002.89
2021-12-30 02:53:00,,0814.9,5.00,0.00,22.6,22.3,00.0,31.5,24.3,06.6,0000.0,0016.74,0004.62,0002.88
2021-12-30 02:54:00,,0814.9,4.99,0.00,22.6,22.1,00.0,31.5,24.2,06.6,0000.0,0014.79,0004.66,0002.85
2021-12-30 02:55:00,,0814.9,5.00,0.00,22.5,22.0,00.0,31.5,24.2,06.6,0000.0,0014.26,0004.61,0002.81
2021-12-30 02:56:00,,0814.8,5.02,0.00,22.5,21.9,00.0,31.5,24.1,06.7,0000.0,0013.92,0004.60,0002.83
2021-12-30 02:57:00,,0814.8,4.99,0.00,22.5,21.8,00.0,31.5,24.1,06.7,0000.0,0013.88,0004.61,0002.83
2021-12-30 02:58:00,,0815.2,5.00,0.00,22.4,21.8,00.0,31.5,24.0,06.7,0000.0,0013.49,0004.56,0002.82
2021-12-30 02:59:00,,0815.1,4.99,0.00,22.4,21.7,00.0,31.5,24.0,06.7,0000.0,0013.91,0004.52,0002.80
